Regional Weather Roundup
Issued by NWS Goodland, KS

Home | Current Version | Previous Version | Graphics & Text | Print | Product List | Glossary On
Versions: 1 2 3 4 5 6 7 8 9 10 11 12 13 14 15 16 17 18 19 20 21 22 23 24 25 26 27 28 29 30 31 32 33 34 35 36 37 38 39 40 41 42 43 44 45 46 47 48 49 50
000
ASUS43 KGLD 241259
RWRGLD

GOODLAND FORECAST AREA HOURLY WEATHER ROUNDUP
NATIONAL WEATHER SERVICE GOODLAND KS
700 AM MDT TUE MAY 24 2016

...OFFICIAL OBSERVATIONS...

CITY           SKY/WX    TMP DP  RH WIND       PRES   REMARKS
GOODLAND KS    PTSUNNY   57  50  77 E13       29.91R
HILL CITY KS   CLOUDY    58  56  93 SE9       29.91R
IMPERIAL NEB   CLOUDY    56  50  80 NW6       29.91R
MCCOOK NEB     SUNNY     59  52  77 SE9       29.87R
AKRON CO       CLOUDY    50  44  80 CALM      29.97R
BURLINGTON CO  SUNNY     56  46  69 E14       29.92S
LIMON CO       MOSUNNY   52  41  66 E7        29.98R
$$

...UNOFFICIAL OBSERVATIONS...

CITY           SKY/WX    TMP DP  RH WIND       PRES   REMARKS
COLBY KS       CLOUDY    57  57 100 NE8       29.92R
LENORA KS        N/A     57  32  39 MISG        N/A
NORTON KS      SUNNY     57  55  94 SE3       29.90R
SHARON SPRINGS   N/A     58  56  93 NE15        N/A
KIT CARSON CO    N/A     55  44  67 MISG        N/A
YUMA CO          N/A     51  48  91 CALM        N/A
$$




USA.gov is the U.S. government's official web portal to all federal, state and local government web resources and services.